Miscellaneous Local Product
Issued by NWS North Platte, NE

Home | Current Version | Previous Version | Text Only | Print | Product List | Glossary On
Versions: 1 2 3 4 5 6 7 8 9 10 11 12 13 14 15 16 17 18 19 20 21 22 23 24 25 26 27 28 29 30 31 32 33 34 35 36 37 38 39 40 41 42 43 44 45 46 47 48 49 50
000
AXUS43 KLBF 192110
MISLBF


WESTERN AND NORTH CENTRAL NEBRASKA HOURLY WEATHER ROUNDUP
NATIONAL WEATHER SERVICE NORTH PLATTE NE
400 PM CDT SAT APR 19 2014

***STATIONS NOT REPORTING VARIABLES SUCH AS SKY/WEATHER OR
PRESSURE ARE PROVIDED BY THE NEBRASKA DEPARTMENT OF
ROADS...RAWS...AND APRS NETWORKS...AND ARE NOT UNDER
NATIONAL WEATHER SERVICE QUALITY CONTROL***

...OBSERVATIONS IN AND NEAR THE EASTERN PANHANDLE OF NEBRASKA...

CITY           SKY/WX    TMP DP  RH WIND       PRES   REMARKS
PINE RIDGE     PTSUNNY   62  24  23 NE7       30.03F
CHADRON        PTSUNNY   63  29  27 SE3       30.02F
ALLIANCE       PTSUNNY   63  28  26 E12G17    30.03F
SIDNEY         CLOUDY    62  34  35 E8        30.06F
WHITECLAY        N/A     63  25  23 E3          N/A
CRESCENT LAKE    N/A     66  27  23 SE6G13      N/A
LISCO            N/A     67  22  18 E10         N/A
BIG SPRINGS      N/A     64  37  37 E8          N/A
LEWELLEN         N/A     71  29  21 NE7         N/A
$$

...OBSERVATIONS IN SOUTHWEST NEBRASKA AND FAR NORTHEAST COLORADO...

CITY           SKY/WX    TMP DP  RH WIND       PRES   REMARKS
WRAY           MOCLDY    68  38  33 NE15      30.01S
HOLYOKE        MOCLDY    68  36  30 NE14      30.03F
IMPERIAL       CLOUDY    68  40  35 NE16      30.00F
OGALLALA       PTSUNNY   68  34  28 E12       30.02F
NORTH PLATTE   PTSUNNY   68  43  40 NE8G20    29.99F
MCCOOK         PTSUNNY   70  49  47 NE18G26   29.95F
LEXINGTON      MOSUNNY   69  50  50 NE10G16   29.97F
PAXTON           N/A     67  42  39 NE6         N/A
SUTHERLAND       N/A     68  39  33 E10         N/A
MEDICINE CREEK   N/A     68  53  59 E5          N/A
GOTHENBURG       N/A     67  50  54 NE6         N/A
CALLAWAY         N/A     65  48  55 E9          N/A
$$

...OBSERVATIONS IN NORTH CENTRAL NEBRASKA...

CITY           SKY/WX    TMP DP  RH WIND       PRES   REMARKS
VALENTINE      PTSUNNY   63  16  16 E5        30.03F
THEDFORD       PTSUNNY   70  31  23 E9G16     30.03S
AINSWORTH      PTSUNNY   67  25  20 E7G17     30.02F
O`NEILL        PTSUNNY   66  36  32 NE9       30.02S
ORD            PTSUNNY   68  47  46 CALM      29.98F
BROKEN BOW     CLOUDY    67  47  48 E12       29.99F
BROWNLEE         N/A     67  26  21 NE9         N/A
SPRINGVIEW       N/A     65  26  23 CALM        N/A
DUNNING          N/A     65  40  39 E12         N/A
BREWSTER         N/A     68  40  35 E10         N/A
ROSE             N/A     69  41  35 NE6         N/A
NEWPORT          N/A     66  33  28 NE9         N/A
COMSTOCK         N/A     73  51  46 CALM        N/A
CHAMBERS         N/A     71  43  37 E3G12       N/A
EWING            N/A     70  46  41 E6G13       N/A
$$

...SOME WEATHER OBSERVATIONS FROM AROUND THE REGION...

CITY           SKY/WX    TMP DP  RH WIND       PRES   REMARKS
DENVER         CLOUDY    65  37  35 E10G22    30.04F
LARAMIE        CLOUDY    57  30  35 SW14      30.07F
CHEYENNE       PTSUNNY   60  37  42 SW10G18   30.06F
SCOTTSBLUFF    CLOUDY    64  31  28 S12       30.03F
RAPID CITY     MOSUNNY   64  33  31 SE12G21   30.01F
PIERRE         PTSUNNY   67  21  17 SW7       29.99S
WINNER         FAIR      67  20  16 CALM      30.03S
SIOUX FALLS    CLOUDY    69  41  36 NW12      29.99S
OMAHA          CLOUDY    78  43  28 S17G31    29.98F
GRAND ISLAND   PTSUNNY   75  49  39 SW8       29.96F
KANSAS CITY    PTSUNNY   77  45  32 S16G28    30.07F
WICHITA        PTSUNNY   79  48  33 S22G36    30.00F
HAYS           PTSUNNY   82  46  28 SW25G32   29.90S
LIBERAL        PTSUNNY   81  46  30 S18G28    29.97F
GOODLAND       SUNNY     71  46  40 NE16G25   29.98R
$$



USA.gov is the U.S. government's official web portal to all federal, state and local government web resources and services.